Content
SEND FEEDBACK

Daily
Averages
Monthly
Summary
United States of America

ASHEVILLE, NORTH CAROLINA


Home > North America > United States > North Carolina
Elevation: 682 meters     Latitude: 35 36N     Longitude: 082 32W

WEATHER
 
SELECT A DAY
Number of Records: 226,879;   Date Range: 1/1/95 - 9/21/14
 
SHARE

PRINT THIS DATA

[ ← Previous Day ]
WEATHER ALMANAC - 17 MARCH, 2013
[ Next Day → ]
[ °F ]   °C
Weather ElementAverageHighLow
Temperature15.3 °C22.2 °C (1:54 pm)8.9 °C (7:54 am)
Dewpoint6.1 °C7.8 °C (5:54 pm)4.4 °C (1:54 pm)
Humidity56.5 %83 % (11:54 pm)31 % (1:54 pm)
Barometer1012.2 hPa1015.6 hPa (11:54 pm)1009.8 hPa (3:54 pm)
Wind Speed10.1 km/h27.8 km/h (3:54 pm)
Wind Gust37 km/h (4:54 pm)
Weather ElementAverage
Visibility16.1 km
Wind DirectionESE (110 °)

Weather ElementTotal
Precipitation---
Heating Degree Days2.8 (Base 18.3)
Growing Degree Days5.6 (Base 10)
Averaged from 23 records on 17 March, 2013
WEATHER CONDITIONS BREAKOUT
WIND DIRECTION BREAKOUT
WEATHER BY HOUR - 17 MARCH, 2013
[ °F ]   °C
Local TimeTemperatureDewpointHumidityBarometerVisibilityWind DirectionWind SpeedGust SpeedPrecipitationEventsConditions
1:54 AM12.8 °C5.6 °C62 %1011.9 hPa16.1 kmSSW (210°)5.6 km/hClear
2:54 AM12.8 °C5.6 °C62 %1011.9 hPa16.1 kmCalmMostly Cloudy
3:54 AM13.3 °C5 °C57 %1011.2 hPa16.1 kmSSW (200°)9.3 km/hClear
4:54 AM12.2 °C5 °C62 %1011.2 hPa16.1 kmCalmPartly Cloudy
5:54 AM11.1 °C5 °C66 %1011.9 hPa16.1 kmCalmClear
6:54 AM10.6 °C5.6 °C71 %1012.2 hPa16.1 kmCalmClear
7:54 AM8.9 °C5.6 °C80 %1012.9 hPa16.1 kmCalmClear
8:54 AM10.6 °C6.1 °C74 %1013.2 hPa16.1 kmCalmClear
9:54 AM13.3 °C6.1 °C62 %1013.5 hPa16.1 kmCalmClear
10:54 AM16.7 °C7.2 °C53 %1013.5 hPa16.1 kmSSE (160°)7.4 km/hClear
11:54 AM20 °C6.7 °C42 %1012.9 hPa16.1 kmVariable5.6 km/hClear
12:54 PM20 °C5.6 °C39 %1012.2 hPa16.1 kmCalmScattered Clouds
1:54 PM22.2 °C4.4 °C31 %1011.2 hPa16.1 kmSSE (160°)13 km/hScattered Clouds
2:54 PM22.2 °C4.4 °C31 %1010.2 hPa16.1 kmSouth (190°)18.5 km/h35.2 km/hPartly Cloudy
3:54 PM21.7 °C6.1 °C36 %1009.8 hPa16.1 kmSouth (190°)27.8 km/hClear
4:54 PM20.6 °C6.7 °C40 %1010.5 hPa16.1 kmSSW (200°)22.2 km/h37 km/hClear
5:54 PM18.9 °C7.8 °C48 %1011.2 hPa16.1 kmSouth (190°)24.1 km/h37 km/hClear
6:54 PM18.3 °C7.8 °C50 %1011.5 hPa16.1 kmSSW (200°)20.4 km/h31.5 km/hClear
7:54 PM17.2 °C6.7 °C50 %1012.5 hPa16.1 kmSSW (200°)20.4 km/hClear
8:54 PM15.6 °C6.7 °C55 %1013.2 hPa16.1 kmSSE (160°)14.8 km/hClear
9:54 PM12.8 °C7.8 °C72 %1014.6 hPa16.1 kmSSE (160°)16.7 km/h29.6 km/hClear
10:54 PM11.1 °C6.7 °C74 %1015.2 hPa16.1 kmSSE (150°)13 km/hMostly Cloudy
11:54 PM8.9 °C6.1 °C83 %1015.6 hPa16.1 kmSSE (160°)14.8 km/hMostly Cloudy
Hourly data recorded from KAVL, located 0 kilometers away from Asheville, North Carolina







STORIES FROM OUR PARTNERS